User: anonymous   Login
Location: Heilwood
(40.6210°N, 78.9150°W)
Time: 00:22:57
(UTC-04:00)
Language:

BREEZE-M DEB (TANK) - Orbit

View from above orbital plane
View from above orbital plane
View from above satellite
View from above satellite

Ground track
Ground track

The orbit data is extracted from the following two-line orbital elements,

1 29649U 06056B   15187.95023521  .00004515  00000-0  11456-2 0  9990
2 29649 049.5043 032.5443 5384299 078.6829 021.0181 04.96927455152303
Epoch (UTC): 06 July 2015 22:48:20
Eccentricity: 0.5384299
inclination: 49.5043°
perigee height: 317 km
apogee height: 15938 km
right ascension of ascending node: 32.5443°
argument of perigee: 78.6829°
revolutions per day: 4.96927455
mean anomaly at epoch: 21.0181°
orbit number at epoch: 15230

The dashed part of the orbit path shows where the satellite is in the earth's shadow,  

DLR